| time (UTC) | temp F | wind direction | speed MPH | gust MPH | rain 1hr in | rain 24hr in | rain mn in | humidity % | barometer mb |
| 20260503184506 | 63 | 203 | 2.0 | 3.0 | 0.00 | 0.00 | 0.00 | 28 | 1018.4 |
| 20260503184002 | 62 | 298 | 3.0 | 8.0 | 0.00 | 0.00 | 0.00 | 27 | 1018.6 |
| 20260503183459 | 62 | 141 | 1.0 | 2.0 | 0.00 | 0.00 | 0.00 | 28 | 1018.8 |
| 20260503182956 | 62 | 254 | 2.0 | 6.0 | 0.00 | 0.00 | 0.00 | 31 | 1018.3 |
| 20260503182455 | 60 | 104 | 1.0 | 5.0 | 0.00 | 0.00 | 0.00 | 28 | 1018.4 |
| 20260503181952 | 62 | 135 | 3.0 | 6.0 | 0.00 | 0.00 | 0.00 | 25 | 1019.0 |
| 20260503181449 | 60 | 178 | 0.0 | 7.0 | 0.00 | 0.00 | 0.00 | 26 | 1018.8 |
| 20260503180945 | 62 | 152 | 1.0 | 2.0 | 0.00 | 0.00 | 0.00 | 26 | 1018.7 |
| 20260503180443 | 60 | 123 | 3.0 | 5.0 | 0.00 | 0.00 | 0.00 | 26 | 1019.1 |
| 20260503175939 | 59 | 237 | 4.0 | 6.0 | 0.00 | 0.00 | 0.00 | 29 | 1019.0 |
| 20260503175438 | 59 | 106 | 3.0 | 7.0 | 0.00 | 0.00 | 0.00 | 36 | 1019.1 |
| 20260503174939 | 59 | 248 | 1.0 | 9.0 | 0.00 | 0.00 | 0.00 | 32 | 1019.1 |
| 20260503174437 | 60 | 166 | 3.0 | 3.0 | 0.00 | 0.00 | 0.00 | 32 | 1019.1 |
| 20260503173932 | 59 | 194 | 3.0 | 5.0 | 0.00 | 0.00 | 0.00 | 30 | 1019.2 |
| 20260503173428 | 60 | 113 | 1.0 | 8.0 | 0.00 | 0.00 | 0.00 | 33 | 1019.2 |
| 20260503172925 | 59 | 211 | 2.0 | 6.0 | 0.00 | 0.00 | 0.00 | 29 | 1019.3 |
| 20260503172423 | 57 | 284 | 7.0 | 9.0 | 0.00 | 0.00 | 0.00 | 31 | 1019.2 |
| 20260503171918 | 57 | 213 | 3.0 | 5.0 | 0.00 | 0.00 | 0.00 | 32 | 1019.5 |
| 20260503171415 | 57 | 180 | 2.0 | 7.0 | 0.00 | 0.00 | 0.00 | 31 | 1019.4 |
| 20260503170913 | 58 | 157 | 3.0 | 5.0 | 0.00 | 0.00 | 0.00 | 35 | 1019.7 |
| 20260503170409 | 58 | 299 | 4.0 | 8.0 | 0.00 | 0.00 | 0.00 | 34 | 1019.5 |
| 20260503150801 | 52 | 199 | 4.0 | 6.0 | 0.00 | 0.00 | 0.00 | 44 | 1020.5 |
| 20260503150257 | 51 | 157 | 3.0 | 7.0 | 0.00 | 0.00 | 0.00 | 47 | 1020.1 |
| 20260503140222 | 49 | 176 | 1.0 | 5.0 | 0.00 | 0.00 | 0.00 | 55 | 1020.0 |
| 20260503131151 | 45 | 112 | 3.0 | 6.0 | 0.00 | 0.00 | 0.00 | 65 | 1020.0 |
| 20260503130649 | 44 | 172 | 2.0 | 5.0 | 0.00 | 0.00 | 0.00 | 64 | 1019.9 |
| 20260503130146 | 44 | 167 | 2.0 | 3.0 | 0.00 | 0.00 | 0.00 | 67 | 1019.9 |
| 20260503120112 | 36 | 160 | 0.0 | 0.0 | 0.00 | 0.00 | 0.00 | 90 | 1019.6 |
| 20260503110539 | 34 | 147 | 1.0 | 1.0 | 0.00 | 0.00 | 0.00 | 92 | 1019.1 |
| 20260503090426 | 37 | 156 | 0.0 | 0.0 | 0.00 | 0.00 | 0.00 | 83 | 1017.8 |
| 20260503081352 | 41 | 160 | 0.0 | 1.0 | 0.00 | 0.00 | 0.00 | 75 | 1017.3 |
| 20260503080849 | 41 | 141 | 1.0 | 2.0 | 0.00 | 0.00 | 0.00 | 73 | 1017.2 |
| 20260503080346 | 41 | 123 | 2.0 | 2.0 | 0.00 | 0.00 | 0.00 | 77 | 1017.0 |
| 20260503072823 | 36 | 157 | 1.0 | 2.0 | 0.00 | 0.00 | 0.00 | 89 | 1016.8 |
| 20260503072320 | 36 | 182 | 0.0 | 2.0 | 0.00 | 0.00 | 0.00 | 88 | 1016.8 |
| 20260503071815 | 36 | 175 | 0.0 | 1.0 | 0.00 | 0.00 | 0.00 | 89 | 1016.8 |
| 20260503071313 | 36 | 165 | 0.0 | 2.0 | 0.00 | 0.00 | 0.00 | 89 | 1016.8 |
| 20260503070809 | 36 | 178 | 0.0 | 0.0 | 0.00 | 0.00 | 0.00 | 89 | 1016.7 |
| 20260503070307 | 36 | 182 | 0.0 | 1.0 | 0.00 | 0.00 | 0.00 | 89 | 1016.8 |
| 20260503060232 | 36 | 124 | 2.0 | 2.0 | 0.00 | 0.00 | 0.00 | 89 | 1016.6 |
| 20260503054719 | 36 | 166 | 0.0 | 1.0 | 0.00 | 0.00 | 0.00 | 88 | 1016.9 |
| 20260503054216 | 36 | 158 | 1.0 | 1.0 | 0.00 | 0.00 | 0.00 | 88 | 1016.8 |
| 20260503053714 | 37 | 203 | 1.0 | 1.0 | 0.00 | 0.00 | 0.00 | 87 | 1016.8 |
| 20260503053213 | 37 | 205 | 1.0 | 2.0 | 0.00 | 0.00 | 0.00 | 87 | 1016.7 |
| 20260503052709 | 37 | 170 | 0.0 | 1.0 | 0.00 | 0.00 | 0.00 | 87 | 1016.8 |
| 20260503052206 | 37 | 166 | 0.0 | 1.0 | 0.00 | 0.00 | 0.00 | 86 | 1017.0 |
| 20260503051701 | 37 | 147 | 0.0 | 1.0 | 0.00 | 0.00 | 0.00 | 86 | 1016.7 |
| 20260503051159 | 37 | 149 | 1.0 | 2.0 | 0.00 | 0.00 | 0.00 | 86 | 1016.9 |
| 20260503050655 | 38 | 128 | 1.0 | 2.0 | 0.00 | 0.00 | 0.00 | 85 | 1016.6 |
| 20260503050151 | 38 | 168 | 0.0 | 2.0 | 0.00 | 0.00 | 0.00 | 85 | 1016.9 |
| 20260503045649 | 38 | 234 | 1.0 | 1.0 | 0.00 | 0.00 | 0.00 | 84 | 1016.7 |
| 20260503045146 | 38 | 151 | 0.0 | 1.0 | 0.00 | 0.00 | 0.00 | 84 | 1016.9 |
| 20260503044643 | 38 | 145 | 1.0 | 1.0 | 0.00 | 0.00 | 0.00 | 83 | 1016.7 |
| 20260503044140 | 38 | 170 | 0.0 | 1.0 | 0.00 | 0.00 | 0.00 | 83 | 1016.7 |
| 20260503043637 | 39 | 103 | 1.0 | 2.0 | 0.00 | 0.00 | 0.00 | 83 | 1016.7 |
| 20260503043134 | 39 | 132 | 1.0 | 1.0 | 0.00 | 0.00 | 0.00 | 82 | 1016.8 |
| 20260503042630 | 39 | 164 | 0.0 | 0.0 | 0.00 | 0.00 | 0.00 | 81 | 1016.5 |
| 20260503042126 | 39 | 161 | 0.0 | 2.0 | 0.00 | 0.00 | 0.00 | 80 | 1016.6 |
| 20260503041623 | 39 | 185 | 0.0 | 1.0 | 0.00 | 0.00 | 0.00 | 80 | 1016.7 |
| 20260503041121 | 40 | 148 | 1.0 | 2.0 | 0.00 | 0.00 | 0.00 | 80 | 1016.6 |
| 20260503040618 | 40 | 231 | 1.0 | 2.0 | 0.00 | 0.00 | 0.00 | 78 | 1016.4 |
| 20260503040115 | 40 | 155 | 0.0 | 1.0 | 0.00 | 0.00 | 0.00 | 77 | 1016.0 |
| 20260503035612 | 41 | 182 | 1.0 | 1.0 | 0.00 | 0.00 | 0.00 | 77 | 1015.9 |
| 20260503035110 | 41 | 189 | 0.0 | 2.0 | 0.00 | 0.00 | 0.00 | 77 | 1015.9 |
| 20260503034607 | 41 | 146 | 2.0 | 2.0 | 0.00 | 0.00 | 0.00 | 76 | 1015.9 |
| 20260503034104 | 41 | 168 | 0.0 | 2.0 | 0.00 | 0.00 | 0.00 | 76 | 1015.9 |
| 20260503033601 | 41 | 50 | 1.0 | 2.0 | 0.00 | 0.00 | 0.00 | 75 | 1015.8 |
| 20260503033059 | 42 | 178 | 0.0 | 1.0 | 0.00 | 0.00 | 0.00 | 74 | 1015.7 |
| 20260503032557 | 43 | 113 | 1.0 | 1.0 | 0.00 | 0.00 | 0.00 | 72 | 1016.0 |
| 20260503032055 | 44 | 159 | 0.0 | 1.0 | 0.00 | 0.00 | 0.00 | 68 | 1015.7 |
| 20260503031552 | 44 | 333 | 3.0 | 5.0 | 0.00 | 0.00 | 0.00 | 68 | 1015.9 |
| 20260503031049 | 44 | 203 | 1.0 | 2.0 | 0.00 | 0.00 | 0.00 | 68 | 1015.6 |
| 20260503030545 | 45 | 282 | 2.0 | 2.0 | 0.00 | 0.00 | 0.00 | 64 | 1015.7 |
| 20260503030042 | 45 | 192 | 1.0 | 5.0 | 0.00 | 0.00 | 0.00 | 61 | 1015.9 |
| 20260503025539 | 45 | 184 | 2.0 | 7.0 | 0.00 | 0.00 | 0.00 | 56 | 1015.8 |
| 20260503025037 | 41 | 195 | 1.0 | 2.0 | 0.00 | 0.00 | 0.00 | 75 | 1015.9 |
| 20260503024533 | 42 | 143 | 0.0 | 1.0 | 0.00 | 0.00 | 0.00 | 75 | 1015.9 |
| 20260503024030 | 42 | 132 | 1.0 | 2.0 | 0.00 | 0.00 | 0.00 | 75 | 1015.8 |
| 20260503023527 | 42 | 159 | 0.0 | 1.0 | 0.00 | 0.00 | 0.00 | 74 | 1015.9 |
| 20260503023025 | 42 | 135 | 1.0 | 2.0 | 0.00 | 0.00 | 0.00 | 74 | 1015.9 |
| 20260503022520 | 43 | 167 | 0.0 | 2.0 | 0.00 | 0.00 | 0.00 | 71 | 1015.7 |
| 20260503022015 | 43 | 168 | 1.0 | 2.0 | 0.00 | 0.00 | 0.00 | 71 | 1015.6 |
| 20260503021512 | 43 | 169 | 0.0 | 1.0 | 0.00 | 0.00 | 0.00 | 70 | 1015.5 |
| 20260503021009 | 44 | 173 | 0.0 | 1.0 | 0.00 | 0.00 | 0.00 | 68 | 1015.5 |
| 20260503020506 | 44 | 168 | 0.0 | 0.0 | 0.00 | 0.00 | 0.00 | 67 | 1015.5 |
| 20260503020003 | 44 | 138 | 1.0 | 3.0 | 0.00 | 0.00 | 0.00 | 65 | 1015.5 |
| 20260503015459 | 45 | 160 | 0.0 | 1.0 | 0.00 | 0.00 | 0.00 | 65 | 1015.3 |
| 20260503014956 | 46 | 133 | 1.0 | 1.0 | 0.00 | 0.00 | 0.00 | 63 | 1015.2 |
| 20260503014453 | 47 | 166 | 0.0 | 0.0 | 0.00 | 0.00 | 0.00 | 60 | 1015.4 |
| 20260503013951 | 47 | 150 | 1.0 | 1.0 | 0.00 | 0.00 | 0.00 | 54 | 1014.8 |
| 20260503013448 | 48 | 239 | 1.0 | 1.0 | 0.00 | 0.00 | 0.00 | 55 | 1015.0 |
| 20260503012945 | 49 | 174 | 0.0 | 3.0 | 0.00 | 0.00 | 0.00 | 53 | 1015.2 |
| 20260503012443 | 49 | 126 | 1.0 | 2.0 | 0.00 | 0.00 | 0.00 | 52 | 1015.3 |
| 20260503011938 | 49 | 180 | 1.0 | 3.0 | 0.00 | 0.00 | 0.00 | 49 | 1014.8 |
| 20260503011435 | 49 | 153 | 2.0 | 6.0 | 0.00 | 0.00 | 0.00 | 48 | 1014.8 |
| 20260503010933 | 50 | 114 | 1.0 | 2.0 | 0.00 | 0.00 | 0.00 | 49 | 1014.6 |
| 20260503010429 | 49 | 194 | 2.0 | 3.0 | 0.00 | 0.00 | 0.00 | 50 | 1014.7 |
| 20260503005927 | 50 | 101 | 2.0 | 2.0 | 0.00 | 0.00 | 0.00 | 48 | 1014.7 |
| 20260503005424 | 50 | 145 | 2.0 | 2.0 | 0.00 | 0.00 | 0.00 | 48 | 1014.5 |
| 20260503004920 | 51 | 176 | 1.0 | 2.0 | 0.00 | 0.00 | 0.00 | 46 | 1014.4 |
| 20260503004417 | 51 | 180 | 0.0 | 6.0 | 0.00 | 0.00 | 0.00 | 47 | 1014.4 |
| 20260503003915 | 51 | 111 | 2.0 | 2.0 | 0.00 | 0.00 | 0.00 | 45 | 1014.4 |
| 20260503003412 | 51 | 145 | 3.0 | 5.0 | 0.00 | 0.00 | 0.00 | 44 | 1014.2 |
| 20260503002909 | 51 | 229 | 1.0 | 3.0 | 0.00 | 0.00 | 0.00 | 44 | 1014.1 |
| 20260503002406 | 51 | 214 | 3.0 | 7.0 | 0.00 | 0.00 | 0.00 | 45 | 1014.1 |
| 20260503001902 | 51 | 192 | 4.0 | 6.0 | 0.00 | 0.00 | 0.00 | 43 | 1014.0 |
| 20260503001358 | 51 | 101 | 5.0 | 8.0 | 0.00 | 0.00 | 0.00 | 44 | 1014.1 |
| 20260503000856 | 52 | 194 | 3.0 | 6.0 | 0.00 | 0.00 | 0.00 | 45 | 1013.9 |
| 20260503000353 | 52 | 145 | 3.0 | 9.0 | 0.00 | 0.00 | 0.00 | 42 | 1013.8 |
| 20260502235850 | 52 | 255 | 6.0 | 9.0 | 0.00 | 0.00 | 0.00 | 43 | 1014.0 |
| 20260502235347 | 52 | 196 | 6.0 | 8.0 | 0.00 | 0.00 | 0.00 | 43 | 1013.4 |
| 20260502234844 | 52 | 185 | 3.0 | 6.0 | 0.00 | 0.00 | 0.00 | 45 | 1013.7 |
| 20260502234341 | 53 | 156 | 0.0 | 2.0 | 0.00 | 0.00 | 0.00 | 44 | 1013.2 |
| 20260502233838 | 53 | 185 | 1.0 | 3.0 | 0.00 | 0.00 | 0.00 | 40 | 1013.3 |
| 20260502233334 | 54 | 105 | 2.0 | 9.0 | 0.00 | 0.00 | 0.00 | 40 | 1013.4 |
| 20260502232831 | 55 | 195 | 7.0 | 9.0 | 0.00 | 0.00 | 0.00 | 39 | 1013.3 |
| 20260502232327 | 55 | 129 | 3.0 | 6.0 | 0.00 | 0.00 | 0.00 | 37 | 1013.1 |
| 20260502231824 | 55 | 210 | 1.0 | 7.0 | 0.00 | 0.00 | 0.00 | 36 | 1013.3 |
| 20260502231322 | 56 | 204 | 4.0 | 8.0 | 0.00 | 0.00 | 0.00 | 35 | 1013.6 |
| 20260502230820 | 57 | 162 | 3.0 | 5.0 | 0.00 | 0.00 | 0.00 | 35 | 1013.1 |
| 20260502230318 | 57 | 230 | 0.0 | 2.0 | 0.00 | 0.00 | 0.00 | 36 | 1013.2 |
| 20260502225814 | 57 | 268 | 3.0 | 6.0 | 0.00 | 0.00 | 0.00 | 35 | 1013.1 |
| 20260502225311 | 57 | 202 | 1.0 | 2.0 | 0.00 | 0.00 | 0.00 | 35 | 1013.2 |
| 20260502224807 | 57 | 208 | 1.0 | 5.0 | 0.00 | 0.00 | 0.00 | 36 | 1013.0 |
| 20260502224304 | 57 | 160 | 4.0 | 7.0 | 0.00 | 0.00 | 0.00 | 36 | 1013.3 |
| 20260502223802 | 57 | 188 | 2.0 | 6.0 | 0.00 | 0.00 | 0.00 | 37 | 1013.3 |
| 20260502223300 | 58 | 186 | 2.0 | 3.0 | 0.00 | 0.00 | 0.00 | 35 | 1013.0 |
| 20260502222757 | 58 | 190 | 5.0 | 7.0 | 0.00 | 0.00 | 0.00 | 36 | 1012.7 |
| 20260502222254 | 58 | 229 | 3.0 | 5.0 | 0.00 | 0.00 | 0.00 | 36 | 1013.1 |
| 20260502221750 | 58 | 87 | 2.0 | 5.0 | 0.00 | 0.00 | 0.00 | 34 | 1013.1 |
| 20260502221246 | 58 | 248 | 4.0 | 6.0 | 0.00 | 0.00 | 0.00 | 36 | 1013.1 |
| 20260502220743 | 58 | 200 | 4.0 | 7.0 | 0.00 | 0.00 | 0.00 | 35 | 1013.0 |
| 20260502220239 | 59 | 231 | 6.0 | 10.0 | 0.00 | 0.00 | 0.00 | 33 | 1012.9 |
| 20260502215735 | 59 | 194 | 3.0 | 6.0 | 0.00 | 0.00 | 0.00 | 36 | 1013.0 |
| 20260502215233 | 60 | 163 | 5.0 | 8.0 | 0.00 | 0.00 | 0.00 | 33 | 1012.8 |
| 20260502214730 | 59 | 225 | 0.0 | 2.0 | 0.00 | 0.00 | 0.00 | 36 | 1012.6 |
| 20260502214227 | 59 | 228 | 2.0 | 6.0 | 0.00 | 0.00 | 0.00 | 39 | 1012.8 |
| 20260502213724 | 59 | 240 | 3.0 | 3.0 | 0.00 | 0.00 | 0.00 | 35 | 1012.5 |
| 20260502213222 | 59 | 143 | 7.0 | 9.0 | 0.00 | 0.00 | 0.00 | 34 | 1012.1 |
| 20260502212720 | 59 | 89 | 5.0 | 13.0 | 0.00 | 0.00 | 0.00 | 33 | 1012.1 |
| 20260502212218 | 58 | 210 | 1.0 | 5.0 | 0.00 | 0.00 | 0.00 | 32 | 1012.4 |
| 20260502211714 | 60 | 135 | 7.0 | 8.0 | 0.00 | 0.00 | 0.00 | 35 | 1012.3 |
| 20260502211211 | 59 | 240 | 1.0 | 6.0 | 0.00 | 0.00 | 0.00 | 32 | 1012.1 |
| 20260502210708 | 59 | 83 | 6.0 | 7.0 | 0.00 | 0.00 | 0.00 | 32 | 1012.1 |
| 20260502210205 | 58 | 197 | 3.0 | 11.0 | 0.00 | 0.00 | 0.00 | 37 | 1012.3 |
| 20260502205702 | 59 | 152 | 3.0 | 5.0 | 0.00 | 0.00 | 0.00 | 34 | 1011.8 |
| 20260502205158 | 59 | 134 | 9.0 | 13.0 | 0.00 | 0.00 | 0.00 | 35 | 1012.3 |
| 20260502204655 | 59 | 217 | 5.0 | 9.0 | 0.00 | 0.00 | 0.00 | 33 | 1012.3 |
| 20260502204153 | 58 | 112 | 4.0 | 13.0 | 0.00 | 0.00 | 0.00 | 35 | 1012.0 |
| 20260502203650 | 57 | 137 | 2.0 | 8.0 | 0.00 | 0.00 | 0.00 | 35 | 1012.0 |
| 20260502203149 | 56 | 218 | 5.0 | 7.0 | 0.00 | 0.00 | 0.00 | 34 | 1012.1 |
| 20260502202648 | 56 | 218 | 4.0 | 5.0 | 0.00 | 0.00 | 0.00 | 35 | 1012.5 |
| 20260502202147 | 56 | 198 | 6.0 | 7.0 | 0.00 | 0.00 | 0.00 | 38 | 1012.0 |
| 20260502201643 | 59 | 137 | 5.0 | 10.0 | 0.00 | 0.00 | 0.00 | 34 | 1012.0 |
| 20260502201140 | 60 | 276 | 3.0 | 7.0 | 0.00 | 0.00 | 0.00 | 32 | 1012.1 |
| 20260502200636 | 60 | 169 | 2.0 | 6.0 | 0.00 | 0.00 | 0.00 | 34 | 1012.0 |
| 20260502200133 | 60 | 186 | 12.0 | 14.0 | 0.00 | 0.00 | 0.00 | 32 | 1011.9 |
| 20260502195631 | 60 | 109 | 5.0 | 6.0 | 0.00 | 0.00 | 0.00 | 31 | 1012.1 |
| 20260502195126 | 59 | 225 | 3.0 | 6.0 | 0.00 | 0.00 | 0.00 | 33 | 1011.9 |
| 20260502194624 | 59 | 88 | 2.0 | 6.0 | 0.00 | 0.00 | 0.00 | 34 | 1012.1 |
| 20260502194120 | 59 | 152 | 3.0 | 5.0 | 0.00 | 0.00 | 0.00 | 38 | 1012.0 |
| 20260502193617 | 58 | 138 | 1.0 | 5.0 | 0.00 | 0.00 | 0.00 | 37 | 1012.5 |
| 20260502193114 | 58 | 303 | 3.0 | 6.0 | 0.00 | 0.00 | 0.00 | 36 | 1012.3 |
| 20260502192609 | 57 | 147 | 1.0 | 5.0 | 0.00 | 0.00 | 0.00 | 37 | 1012.3 |
| 20260502192107 | 56 | 162 | 3.0 | 5.0 | 0.00 | 0.00 | 0.00 | 38 | 1012.5 |
| 20260502191604 | 56 | 153 | 1.0 | 5.0 | 0.00 | 0.00 | 0.00 | 38 | 1012.4 |
| 20260502191102 | 55 | 209 | 3.0 | 5.0 | 0.00 | 0.00 | 0.00 | 38 | 1012.5 |
| 20260502190559 | 55 | 299 | 2.0 | 6.0 | 0.00 | 0.00 | 0.00 | 42 | 1012.6 |
| 20260502190056 | 55 | 295 | 1.0 | 2.0 | 0.00 | 0.00 | 0.00 | 39 | 1012.7 |
| 20260502185550 | 55 | 190 | 1.0 | 7.0 | 0.00 | 0.00 | 0.00 | 39 | 1012.5 |
| 20260502185048 | 55 | 193 | 3.0 | 6.0 | 0.00 | 0.00 | 0.00 | 40 | 1012.9 |